Goodland, KS

9:36 PM MDT on August 28, 2016 (GMT -0600)
Renner-Goodland Municipal

Weather History for KGLD - April, 2014

Change the Weather History Date:

Thursday, April 3, 2014

  Actual Average Record
Temperature  
Mean Temperature 34 °F 45 °F  
Max Temperature 41 °F 60 °F 86 °F (1943)
Min Temperature 26 °F 31 °F 15 °F (1936)
Degree Days  
Heating Degree Days 31 20  
Month to date heating degree days 79 60  
Since 1 July heating degree days 5391 5235  
Cooling Degree Days 0 0  
Month to date cooling degree days 0 0  
Year to date cooling degree days 0 0  
Moisture  
Dew Point 31 °F    
Average Humidity 90    
Maximum Humidity 100    
Minimum Humidity 79    
Precipitation  
Precipitation 0.15 in 0.04 in 1.19 in (2012)
Month to date precipitation 0.15 0.12  
Year to date precipitation 1.51 2.06  
Snow  
Snow T in 0.20 in - ()
Month to date snowfall T 0.7  
Since 1 July snowfall 28.7 31.5  
Snow Depth 0.00 in    
Sea Level Pressure  
Sea Level Pressure 29.86 in    
Wind  
Wind Speed 14 mph (North)    
Max Wind Speed 25 mph    
Max Gust Speed 31 mph    
Visibility 5 miles    
Events Fog , Snow    
T = Trace of Precipitation, MM = Missing Value Source: NWS Daily Summary

Daily Weather History Graph

Daily Weather History Graph

Search for Another Location

Airport or City:

Trip Planner

Search our weather history database for the weather conditions in past years. The results will help you decide how hot, cold, wet, or windy it might be!

Date:

Astronomy

Apr. 03, 2014 Rise Set
Actual Time 6:27 AM MDT 7:12 PM MDT
Civil Twilight 6:00 AM MDT 7:39 PM MDT
Nautical Twilight 5:28 AM MDT 8:12 PM MDT
Astronomical Twilight 4:55 AM MDT 8:45 PM MDT
Moon 8:59 AM MDT (4/3) 11:32 PM MDT (4/3)
Length of Visible Light 13h 39m
Length of Day
12h 44m
Waxing Crescent, 18% of the Moon is Illuminated
Apr 3
Waxing Crescent
Apr 7
First Quarter
Apr 15
Full
Apr 22
Last Quarter
Apr 29
New

Hourly Weather History & Observations

Time (MDT) Temp. Windchill Dew Point Humidity Pressure Visibility Wind Dir Wind Speed Gust Speed Precip Events Conditions
12:53 AM 34.0 °F 23.4 °F 32.0 °F 92% 29.75 in 4.0 mi NNE 17.3 mph - N/A   Overcast
1:02 AM 33.1 °F 23.0 °F 32.0 °F 96% 29.76 in 4.0 mi NNE 15.0 mph - N/A   Overcast
1:53 AM 34.0 °F 24.2 °F 30.9 °F 89% 29.75 in 7.0 mi NNE 15.0 mph - N/A   Overcast
2:53 AM 34.0 °F 23.4 °F 30.9 °F 89% 29.74 in 9.0 mi North 17.3 mph - N/A   Overcast
3:53 AM 34.0 °F 23.0 °F 30.9 °F 89% 29.73 in 8.0 mi NNW 18.4 mph - N/A   Overcast
4:10 AM 34.0 °F 23.8 °F 30.9 °F 89% 29.73 in 8.0 mi North 16.1 mph - N/A   Overcast
4:48 AM 33.8 °F 23.2 °F 30.2 °F 87% 29.73 in 6.0 mi North 17.3 mph - N/A   Overcast
4:53 AM 34.0 °F 24.6 °F 30.9 °F 89% 29.72 in 6.0 mi North 13.8 mph - N/A   Overcast
5:53 AM 33.1 °F 23.9 °F 30.0 °F 89% 29.76 in 5.0 mi North 12.7 mph - N/A   Overcast
6:20 AM 33.1 °F 25.5 °F 30.9 °F 92% 29.76 in 5.0 mi North 9.2 mph - N/A   Overcast
6:43 AM 34.0 °F 25.0 °F 30.9 °F 89% 29.77 in 6.0 mi NNE 12.7 mph - N/A   Overcast
6:53 AM 34.0 °F 23.8 °F 30.9 °F 89% 29.77 in 5.0 mi NNE 16.1 mph 24.2 mph N/A   Overcast
7:53 AM 34.0 °F 23.4 °F 30.9 °F 89% 29.81 in 3.0 mi North 17.3 mph - 0.00 in Snow Light Snow
8:02 AM 34.0 °F 22.7 °F 32.0 °F 92% 29.78 in 2.0 mi North 19.6 mph 23.0 mph 0.00 in Snow Light Snow
8:11 AM 33.1 °F 23.0 °F 32.0 °F 96% 29.78 in 1.8 mi North 15.0 mph - 0.00 in Snow Light Snow
8:27 AM 33.1 °F 22.6 °F 32.0 °F 96% 29.79 in 2.0 mi North 16.1 mph - 0.00 in Snow Light Snow
8:53 AM 33.1 °F 22.6 °F 32.0 °F 96% 29.83 in 2.0 mi North 16.1 mph - 0.00 in Snow Light Snow
9:40 AM 33.1 °F 21.9 °F 30.9 °F 92% 29.80 in 3.0 mi North 18.4 mph - 0.01 in Snow Light Snow
9:53 AM 32.0 °F 20.5 °F 30.9 °F 96% 29.85 in 3.0 mi North 18.4 mph - 0.01 in Snow Light Snow
10:00 AM 32.0 °F 20.5 °F 30.9 °F 96% 29.80 in 1.8 mi North 18.4 mph - 0.00 in Snow Light Snow
10:15 AM 32.0 °F 20.1 °F 30.9 °F 96% 29.81 in 0.8 mi North 19.6 mph - 0.01 in Snow Light Snow
10:49 AM 32.0 °F 19.8 °F 32.0 °F 100% 29.82 in 0.5 mi North 20.7 mph - 0.03 in Fog , Snow Snow
10:53 AM 32.0 °F 20.5 °F 32.0 °F 100% 29.86 in 0.8 mi North 18.4 mph - 0.03 in Snow Light Snow
11:32 AM 33.1 °F 20.9 °F 32.0 °F 96% 29.81 in 1.0 mi North 21.9 mph 27.6 mph 0.01 in Snow Light Snow
11:53 AM 33.1 °F 21.9 °F 32.0 °F 96% 29.87 in 0.8 mi North 18.4 mph 28.8 mph 0.02 in Snow Light Snow
12:53 PM 33.1 °F 22.2 °F 32.0 °F 96% 29.88 in 0.8 mi North 17.3 mph - 0.02 in Snow Light Snow
1:53 PM 34.0 °F 23.0 °F 33.1 °F 96% 29.88 in 1.2 mi NNW 18.4 mph - 0.02 in Snow Light Snow
2:09 PM 34.0 °F 23.4 °F 33.1 °F 96% 29.85 in 1.0 mi NNW 17.3 mph - 0.01 in Snow Light Snow
2:31 PM 33.1 °F 23.4 °F 33.1 °F 100% 29.85 in 0.5 mi NNW 13.8 mph - 0.02 in Fog , Snow Snow
2:53 PM 33.1 °F 22.2 °F 32.0 °F 96% 29.90 in 0.5 mi NNW 17.3 mph - 0.05 in Fog , Snow Light Snow
3:00 PM 33.1 °F 22.2 °F 33.1 °F 100% 29.86 in 1.2 mi NNW 17.3 mph - 0.00 in Snow Light Snow
3:05 PM 34.0 °F 23.4 °F 33.1 °F 96% 29.86 in 2.5 mi NNW 17.3 mph - 0.00 in Snow Light Snow
3:12 PM 35.1 °F 24.8 °F 33.1 °F 92% 29.86 in 5.0 mi North 17.3 mph - 0.00 in   Overcast
3:53 PM 37.9 °F 28.5 °F 34.0 °F 86% 29.91 in 10.0 mi North 17.3 mph - 0.00 in   Overcast
4:53 PM 37.9 °F 30.9 °F 34.0 °F 86% 29.95 in 10.0 mi NNW 10.4 mph - N/A   Overcast
5:53 PM 39.9 °F 34.5 °F 33.1 °F 77% 29.98 in 10.0 mi NNW 8.1 mph - N/A   Partly Cloudy
6:53 PM 37.9 °F 34.4 °F 32.0 °F 79% 30.01 in 10.0 mi NNW 4.6 mph - N/A   Scattered Clouds
7:53 PM 32.0 °F 27.5 °F 30.0 °F 92% 30.05 in 10.0 mi West 4.6 mph - N/A   Clear
9:53 PM 28.9 °F 21.1 °F 26.1 °F 89% 30.11 in 10.0 mi North 8.1 mph - N/A   Clear
10:53 PM 28.9 °F 21.1 °F 25.0 °F 85% 30.14 in 10.0 mi NW 8.1 mph - N/A   Clear
11:53 PM 28.9 °F 19.8 °F 24.1 °F 82% 30.16 in 10.0 mi NW 10.4 mph - N/A   Clear